TIMED

Last updated on Wed Sep 09 2026 00:02:52 GMT+0000 (Coordinated Universal Time)

1 26998U 01055B 26251.56814260 .00000837 00000+0 79229-4 0 9993 2 26998 74.0660 67.1097 0002043 240.7497 119.3484 14.95444397343281
UTC large
Height (km)
Speed (km/s)
/
Latitude / Longitude
Inclination (degrees)
Orbital Period (minutes)
Azimuth
Elevation
Range (km)
Doppler Factor

Next 0 passes for location: London (51.5072 / 0.1276)

No passes found over London.
TIMED